Regional Weather Roundup
Issued by NWS

Home | Current Version | Previous Version | Text Only | Print | Product List | Glossary On
Versions: 1 2 3 4 5 6 7 8 9 10 11 12 13 14 15 16 17 18 19 20 21 22 23 24 25 26 27
000
ASUS46 KSEW 212110
RWRWA

WASHINGTON REGIONAL WEATHER ROUNDUP
NATIONAL WEATHER SERVICE SEATTLE WA
200 PM PDT SAT APR 21 2018

NOTE:"FAIR" INDICATES FEW OR NO CLOUDS BELOW 12,000 FEET WITH NO
SIGNIFICANT WEATHER AND/OR OBSTRUCTIONS TO VISIBILITY.

WAZ507-509-555>559-212200-
SEATTLE, TACOMA, EVERETT, AND VICINITY

CITY           SKY/WX    TMP DP  RH WIND       PRES   REMARKS
EVERETT        CLOUDY    51  38  60 NW6       30.40S
BOEING FIELD   CLOUDY    53  36  52 SW13      30.40R
RENTON         PTSUNNY   57  35  43 S10       30.39S
SEATAC AIRPORT LGT RAIN  51  37  58 N15       30.40R
JBLM-MCCHORD   MOSUNNY   57  38  48 W15G22    30.39F
PUYALLUP       PTSUNNY   55  34  44 VRB7      30.40S
BREMERTON      LGT RAIN  51  39  63 NE15      30.38S
JBLM-FT LEWIS  MOSUNNY   57  40  52 SW13G22   30.39S
TACOMA NARROWS MOSUNNY   56  35  45 SW12      30.39S
$$

WAZ001-503-506-510-514-515-212200-
NORTH INTERIOR

CITY           SKY/WX    TMP DP  RH WIND       PRES   REMARKS
BELLINGHAM     PTSUNNY   54  40  59 S12       30.38R
FRIDAY HARBOR  MOSUNNY   56  37  49 SW10G20   30.39S
EASTSOUND      SUNNY     55  36  47 SW9       30.36S
PORT ANGELES   PTSUNNY   49  40  71 NW16G22   30.41R
EDIZ HOOK      MOCLDY    50  41  70 NW15      30.42R
PORT TOWNSEND  FAIR      52  39  62 NW15      30.41R
NAS WHIDBEY    MOSUNNY   56  42  59 W15       30.44S
ARLINGTON      MOSUNNY   55  35  47 NW7       30.41
BURLINGTON     SUNNY     55  36  47 W8G15     30.39S
$$

WAZ020-022-039-040-504-511-512-212200-
SOUTHWEST INTERIOR

CITY           SKY/WX    TMP DP  RH WIND       PRES   REMARKS
SHELTON        PTSUNNY   56  37  49 SW18G25   30.38S
OLYMPIA        MOSUNNY   55  33  43 W9        30.40S
CHEHALIS       PTSUNNY   57  36  44 N7G14     30.41S
KELSO          MOSUNNY   58  36  43 W9        30.42F
VANCOUVER      SUNNY     59  35  40 W8        30.41F
SCAPPOOSE, OR  PTSUNNY   58  37  45 VRB6      30.41S
PORTLAND, OR   MOSUNNY   59  32  36 NW5       30.42S
$$

WAZ021-516-517-212200-
WASHINGTON COAST

CITY           SKY/WX    TMP DP  RH WIND       PRES   REMARKS
FORKS          PTSUNNY   50  37  61 W13       30.44R
HOQUIAM        PTSUNNY   51  41  68 W14       30.45F
ASTORIA, OR    CLOUDY    55  40  56 W9        30.45S
$$

WAZ019-023-024-040-567>569-212200-
CASCADE MOUNTAINS AND COLUMBIA GORGE

CITY           SKY/WX    TMP DP  RH WIND       PRES   REMARKS
STAMPEDE PASS  NOT AVBL
TROUTDALE, OR  SUNNY     59  34  39 W6        30.41F
HOOD RIVER, OR CLEAR     57  32  38 W8G16     30.36S
THE DALLES, OR SUNNY     64  29  26 NW20G29   30.33F
$$

WAZ026-027-041>044-520-521-212200-
EAST SLOPES

CITY           SKY/WX    TMP DP  RH WIND       PRES   REMARKS
OMAK           SUNNY     62  15  16 W14G24    30.14F
WENATCHEE      SUNNY     59  17  19 NW24G30   30.24R
ELLENSBURG     SUNNY     56  24  29 NW28G33   30.31R
YAKIMA         PTSUNNY   62  23  22 VRB6      30.27S
SUNNYSIDE ARPT CLEAR     61  21  21 W6        30.27S
YAKIMA TC      MOCLDY    58  24  26 N17       30.25R
$$

WAZ028-034-035-212200-
COLUMBIA BASIN

CITY           SKY/WX    TMP DP  RH WIND       PRES   REMARKS
EPHRATA        CLOUDY    59  22  24 W14       30.24R
MOSES LAKE     SUNNY     62  22  21 SW15G25   30.24S
PASCO          MOSUNNY   67  21  17 W20       30.27S
RICHLAND ARPT  CLEAR     67  24  19 SW15G21   30.27S
HERMISTON, OR  SUNNY     65  22  19 W17G26    30.28F
$$

WAZ036>038-212200-
NORTHEAST WASHINGTON

CITY           SKY/WX    TMP DP  RH WIND       PRES   REMARKS
SPOKANE GEIGER MOSUNNY   55  24  30 SW21G32   30.19S
SPOKANE FELTS  SUNNY     57  23  26 W14G26    30.20R
FAIRCHILD AFB  CLOUDY    55  28  35 SW23      30.19S
COEURDALENE,ID SUNNY     57  29  34 SW22G29   30.18S
DEER PARK      SUNNY     57  23  26 SW18G30   30.16S
$$

WAZ029>033-212200-
SOUTHEAST WASHINGTON

CITY           SKY/WX    TMP DP  RH WIND       PRES   REMARKS
PULLMAN        MOSUNNY   55  29  36 W17G28    30.26F
LEWISTON, ID   SUNNY     62  28  27 NW22G35   30.22S
WALLA WALLA    SUNNY     61  29  29 W17       30.28S
PENDLETON, OR  SUNNY     61  19  19 W16G29    30.29S
$$




USA.gov is the U.S. government's official web portal to all federal, state and local government web resources and services.